Rockland, ME

1:38 PM EDT on July 27, 2017 (GMT -0400)
Knox County Regional

Weather History for KRKD - March, 2013

Change the Weather History Date:

Thursday, March 7, 2013

  Actual Average Record
Temperature  
Mean Temperature 35 °F -  
Max Temperature 37 °F 33 °F 53 °F (2009)
Min Temperature 33 °F 20 °F -4 °F (2007)
Degree Days  
Heating Degree Days 30    
Moisture  
Dew Point 25 °F    
Average Humidity 68    
Maximum Humidity 75    
Minimum Humidity 60    
Precipitation  
Precipitation 0.00 in - - ()
Sea Level Pressure  
Sea Level Pressure 30.13 in    
Wind  
Wind Speed 18 mph (NE)    
Max Wind Speed 24 mph    
Max Gust Speed 36 mph    
Visibility 10 miles    
Events      
Averages and records for this station are not official NWS values.
T = Trace of Precipitation, MM = Missing Value Source: NWS Daily Summary

Daily Weather History Graph

Daily Weather History Graph

Search for Another Location

Airport or City:

Trip Planner

Search our weather history database for the weather conditions in past years. The results will help you decide how hot, cold, wet, or windy it might be!

Date:

Astronomy

Mar. 07, 2013 Rise Set
Actual Time 6:02 AM EST 5:32 PM EST
Civil Twilight 5:33 AM EST 6:01 PM EST
Nautical Twilight 5:00 AM EST 6:35 PM EST
Astronomical Twilight 4:26 AM EST 7:08 PM EST
Moon 3:07 AM EST (3/7) 1:09 PM EST (3/7)
Length of Visible Light 12h 27m
Length of Day
11h 30m
Waning Crescent, 20% of the Moon is Illuminated
Mar 7
Waning Crescent
Mar 11
New
Mar 19
First Quarter
Mar 27
Full
Apr 3
Last Quarter

Hourly Weather History & Observations

Time (EST) Temp. Windchill Dew Point Humidity Pressure Visibility Wind Dir Wind Speed Gust Speed Precip Events Conditions
12:15 AM 33.8 °F 22.8 °F 24.8 °F 70% 30.17 in 10.0 mi NE 18.4 mph 27.6 mph N/A   Overcast
12:35 AM 33.8 °F 21.9 °F 24.8 °F 70% 30.20 in 10.0 mi NE 21.9 mph 27.6 mph N/A   Overcast
12:55 AM 33.8 °F 22.2 °F 24.8 °F 70% 30.21 in 10.0 mi NE 20.7 mph 27.6 mph N/A   Overcast
1:15 AM 33.8 °F 23.2 °F 24.8 °F 70% 30.19 in 10.0 mi NE 17.3 mph 26.5 mph N/A   Overcast
1:35 AM 33.8 °F 23.2 °F 24.8 °F 70% 30.18 in 10.0 mi NE 17.3 mph 26.5 mph N/A   Overcast
1:55 AM 33.8 °F 23.5 °F 24.8 °F 70% 30.17 in 10.0 mi NE 16.1 mph 21.9 mph N/A   Overcast
2:15 AM 33.8 °F 23.2 °F 24.8 °F 70% 30.16 in 10.0 mi NE 17.3 mph 24.2 mph N/A   Overcast
2:35 AM 33.8 °F 23.5 °F 24.8 °F 70% 30.17 in 10.0 mi NE 16.1 mph 24.2 mph N/A   Overcast
2:55 AM 33.8 °F 23.5 °F 24.8 °F 70% 30.15 in 10.0 mi NNE 16.1 mph 26.5 mph N/A   Overcast
3:15 AM 33.8 °F 22.8 °F 24.8 °F 70% 30.15 in 10.0 mi NE 18.4 mph 27.6 mph N/A   Overcast
3:35 AM 33.8 °F 23.5 °F 24.8 °F 70% 30.15 in 10.0 mi NNE 16.1 mph 23.0 mph N/A   Overcast
4:15 AM 33.8 °F 23.2 °F 24.8 °F 70% 30.14 in 10.0 mi NE 17.3 mph 27.6 mph N/A   Overcast
4:35 AM 33.8 °F 24.3 °F 24.8 °F 70% 30.14 in 10.0 mi NE 13.8 mph 25.3 mph N/A   Overcast
4:55 AM 33.8 °F 23.9 °F 24.8 °F 70% 30.14 in 10.0 mi NE 15.0 mph 26.5 mph N/A   Overcast
5:15 AM 33.8 °F 22.8 °F 24.8 °F 70% 30.15 in 10.0 mi NE 18.4 mph 28.8 mph N/A   Overcast
5:35 AM 33.8 °F 23.5 °F 24.8 °F 70% 30.15 in 10.0 mi NE 16.1 mph 27.6 mph N/A   Overcast
5:55 AM 33.8 °F 22.8 °F 24.8 °F 70% 30.16 in 10.0 mi NE 18.4 mph 29.9 mph N/A   Overcast
6:15 AM 33.8 °F 22.8 °F 24.8 °F 70% 30.16 in 10.0 mi NE 18.4 mph 24.2 mph N/A   Overcast
6:35 AM 33.8 °F 24.3 °F 24.8 °F 70% 30.16 in 10.0 mi NE 13.8 mph 27.6 mph N/A   Overcast
6:55 AM 33.8 °F 23.5 °F 24.8 °F 70% 30.16 in 10.0 mi NE 16.1 mph 26.5 mph N/A   Overcast
7:15 AM 33.8 °F 23.2 °F 24.8 °F 70% 30.16 in 10.0 mi NNE 17.3 mph 29.9 mph N/A   Overcast
7:35 AM 33.8 °F 22.5 °F 24.8 °F 70% 30.16 in 10.0 mi NE 19.6 mph 29.9 mph N/A   Overcast
7:55 AM 33.8 °F 24.3 °F 24.8 °F 70% 30.16 in 10.0 mi NE 13.8 mph 26.5 mph N/A   Overcast
8:15 AM 33.8 °F 23.5 °F 24.8 °F 70% 30.16 in 10.0 mi NE 16.1 mph 29.9 mph N/A   Overcast
8:55 AM 33.8 °F 23.9 °F 24.8 °F 70% 30.16 in 10.0 mi NNE 15.0 mph 23.0 mph N/A   Overcast
9:15 AM 33.8 °F 24.8 °F 26.6 °F 75% 30.16 in 10.0 mi NNE 12.7 mph 24.2 mph N/A   Overcast
9:35 AM 33.8 °F 23.2 °F 24.8 °F 70% 30.15 in 10.0 mi NE 17.3 mph 28.8 mph N/A   Overcast
9:55 AM 33.8 °F 23.9 °F 24.8 °F 70% 30.15 in 10.0 mi NE 15.0 mph 29.9 mph N/A   Overcast
10:15 AM 33.8 °F 22.8 °F 26.6 °F 75% 30.14 in 10.0 mi NE 18.4 mph 31.1 mph N/A   Overcast
10:35 AM 33.8 °F 22.2 °F 24.8 °F 70% 30.15 in 10.0 mi NE 20.7 mph 32.2 mph N/A   Overcast
10:55 AM 33.8 °F 22.5 °F 24.8 °F 70% 30.14 in 10.0 mi NE 19.6 mph 29.9 mph N/A   Overcast
11:15 AM 35.6 °F 24.0 °F 24.8 °F 65% 30.14 in 10.0 mi NE 23.0 mph 32.2 mph N/A   Overcast
11:35 AM 35.6 °F 24.5 °F 24.8 °F 65% 30.15 in 10.0 mi NE 20.7 mph 28.8 mph N/A   Overcast
11:55 AM 35.6 °F 24.8 °F 24.8 °F 65% 30.14 in 10.0 mi NE 19.6 mph 32.2 mph N/A   Overcast
12:15 PM 35.6 °F 25.2 °F 23.0 °F 60% 30.13 in 10.0 mi NE 18.4 mph 35.7 mph N/A   Overcast
12:35 PM 33.8 °F 22.5 °F 24.8 °F 70% 30.12 in 10.0 mi NNE 19.6 mph 28.8 mph N/A   Overcast
12:55 PM 35.6 °F 25.5 °F 24.8 °F 65% 30.12 in 10.0 mi NNE 17.3 mph 26.5 mph N/A   Overcast
1:15 PM 35.6 °F 25.5 °F 24.8 °F 65% 30.11 in 10.0 mi NNE 17.3 mph 28.8 mph N/A   Overcast
1:35 PM 35.6 °F 26.2 °F 24.8 °F 65% 30.12 in 10.0 mi NNE 15.0 mph 24.2 mph N/A   Overcast
1:55 PM 35.6 °F 25.5 °F 24.8 °F 65% 30.12 in 10.0 mi NNE 17.3 mph 24.2 mph N/A   Overcast
2:15 PM 35.6 °F 26.2 °F 24.8 °F 65% 30.11 in 10.0 mi NE 15.0 mph 23.0 mph N/A   Overcast
2:35 PM 35.6 °F 26.6 °F 24.8 °F 65% 30.11 in 10.0 mi NE 13.8 mph 26.5 mph N/A   Overcast
2:55 PM 35.6 °F 25.9 °F 24.8 °F 65% 30.10 in 10.0 mi NE 16.1 mph 26.5 mph N/A   Overcast
3:15 PM 37.4 °F 27.8 °F 24.8 °F 60% 30.10 in 10.0 mi NE 17.3 mph 24.2 mph N/A   Overcast
3:35 PM 37.4 °F 28.2 °F 24.8 °F 60% 30.09 in 10.0 mi NNE 16.1 mph 24.2 mph N/A   Overcast
3:55 PM 37.4 °F 27.8 °F 24.8 °F 60% 30.09 in 10.0 mi NE 17.3 mph 28.8 mph N/A   Overcast
4:15 PM 37.4 °F 28.9 °F 24.8 °F 60% 30.10 in 10.0 mi NNE 13.8 mph 27.6 mph N/A   Overcast
4:35 PM 37.4 °F 28.5 °F 24.8 °F 60% 30.09 in 10.0 mi NNE 15.0 mph 26.5 mph N/A   Overcast
4:55 PM 37.4 °F 28.9 °F 24.8 °F 60% 30.10 in 10.0 mi NNE 13.8 mph 21.9 mph N/A   Overcast
5:15 PM 37.4 °F 27.2 °F 24.8 °F 60% 30.10 in 10.0 mi NE 19.6 mph 27.6 mph N/A   Overcast
5:35 PM 37.4 °F 28.2 °F 24.8 °F 60% 30.10 in 10.0 mi NNE 16.1 mph 32.2 mph N/A   Overcast
5:55 PM 35.6 °F 24.5 °F 24.8 °F 65% 30.10 in 10.0 mi NNE 20.7 mph 28.8 mph N/A   Overcast
6:15 PM 35.6 °F 24.8 °F 24.8 °F 65% 30.11 in 10.0 mi NNE 19.6 mph 34.5 mph N/A   Overcast
6:35 PM 35.6 °F 25.2 °F 24.8 °F 65% 30.10 in 10.0 mi NNE 18.4 mph 32.2 mph N/A   Mostly Cloudy
6:55 PM 35.6 °F 23.7 °F 24.8 °F 65% 30.10 in 10.0 mi NNE 24.2 mph 31.1 mph N/A   Mostly Cloudy
7:35 PM 35.6 °F 24.5 °F 24.8 °F 65% 30.09 in 10.0 mi NNE 20.7 mph 31.1 mph N/A   Clear
7:55 PM 35.6 °F 25.2 °F 24.8 °F 65% 30.08 in 10.0 mi NNE 18.4 mph 31.1 mph N/A   Clear
8:15 PM 35.6 °F 24.8 °F 24.8 °F 65% 30.09 in 10.0 mi NE 19.6 mph 34.5 mph N/A   Clear
8:35 PM 33.8 °F 22.8 °F 24.8 °F 70% 30.09 in 10.0 mi NNE 18.4 mph 33.4 mph N/A   Partly Cloudy
8:55 PM 33.8 °F 22.8 °F 24.8 °F 70% 30.09 in 10.0 mi NNE 18.4 mph 25.3 mph N/A   Mostly Cloudy
9:15 PM 33.8 °F 22.8 °F 24.8 °F 70% 30.09 in 10.0 mi NNE 18.4 mph 26.5 mph N/A   Mostly Cloudy
9:35 PM 33.8 °F 22.5 °F 24.8 °F 70% 30.08 in 10.0 mi NNE 19.6 mph 29.9 mph N/A   Scattered Clouds
9:55 PM 33.8 °F 22.2 °F 24.8 °F 70% 30.07 in 10.0 mi NNE 20.7 mph 32.2 mph N/A   Partly Cloudy
10:35 PM 33.8 °F 22.2 °F 24.8 °F 70% 30.07 in 10.0 mi NNE 20.7 mph 33.4 mph N/A   Partly Cloudy
10:55 PM 33.8 °F 22.2 °F 24.8 °F 70% 30.06 in 10.0 mi NNE 20.7 mph 34.5 mph N/A   Partly Cloudy
11:15 PM 33.8 °F 23.2 °F 24.8 °F 70% 30.06 in 10.0 mi NNE 17.3 mph 29.9 mph N/A   Mostly Cloudy
11:35 PM 33.8 °F 22.2 °F 24.8 °F 70% 30.05 in 6.0 mi NNE 20.7 mph 33.4 mph N/A   Overcast
11:55 PM 33.8 °F 23.2 °F 24.8 °F 70% 30.04 in 10.0 mi NNE 17.3 mph 33.4 mph N/A   Mostly Cloudy